QPF
0.00 0.00 0.00 0.00 0.00 0.00 0.00 0.00 0.00 0.00 0.00 0.00 0.00 0.00 0.00 0.00 0.00 0.00 0.00 0.00 0.00 0.00 0.00 0.00 0.00 0.00 0.00 0.00 0.00 0.00 0.00 0.00 0.00 0.00 0.00 0.00 0.00 0.00 0.00 0.00 0.00 0.00 0.00 0.00 0.00 0.00 0.00 0.00 0.00
0.00 0.00 0.00 0.00 0.00 0.00 0.00 0.00 0.00 0.00 0.00 0.00 0.00 0.00 0.00 0.00 0.00 0.00 0.00 0.00 0.00 0.00 0.00 0.00 0.00 0.00 0.00 0.00 0.00 0.00 0.00 0.00 0.00 0.00 0.00 0.00 0.00 0.00 0.00 0.00 0.00 0.00 0.00 0.00 0.00 0.00 0.00 0.00 0.00
0.00 0.00 0.00 0.00 0.00 0.00 0.00 0.00 0.00 0.00 0.00 0.00 0.00 0.00 0.00 0.00 0.00 0.00 0.00 0.00 0.00 0.00 0.00 0.00 0.00 0.00 0.00 0.00 0.00 0.00 0.00 0.00 0.00 0.00 0.00 0.00 0.00 0.00 0.00 0.00 0.00 0.00 0.00 0.00 0.00 0.00 0.00 0.00 0.00
0.00 0.00 0.00 0.00 0.00 0.00 0.00 0.00 0.00 0.00 0.00 0.00 0.00 0.00 0.00 0.00 0.00 0.00 0.00 0.00 0.00 0.00 0.00 0.00 0.00 0.00 0.00 0.00 0.00 0.00 0.00 0.00 0.00 0.00 0.00 0.00 0.00 0.00 0.00 0.00 0.00 0.00 0.00 0.00 0.00 0.00 0.00 0.00 0.00
0.00 0.00 0.00 0.00 0.00 0.00 0.00 0.00 0.00 0.00 0.00 0.00 0.00 0.00 0.00 0.00 0.00 0.00 0.00 0.00 0.00 0.00 0.00 0.00 0.00 0.00 0.00 0.00 0.00 0.00 0.00 0.00 0.00 0.00 0.00 0.00 0.00 0.00 0.00 0.00 0.00 0.00 0.00 0.00 0.00 0.00 0.00 0.00 0.00
0.00 0.00 0.00 0.00 0.00 0.00 0.00 0.00 0.00 0.00 0.00 0.00 0.00 0.00 0.00 0.00 0.00 0.00 0.00 0.00 0.00 0.00 0.00 0.00 0.00 0.00 0.00 0.00 0.00 0.00 0.00 0.00 0.00 0.00 0.00 0.00 0.00 0.00 0.00 0.00 0.00 0.00 0.00 0.00 0.00 0.00 0.00 0.00 0.00
0.00 0.00 0.00 0.00 0.00 0.00 0.00 0.00 0.00 0.00 0.00 0.00 0.00 0.00 0.00 0.00 0.00 0.00 0.00 0.00 0.00 0.00 0.00 0.00 0.00 0.00 0.00 0.00 0.00 0.00 0.00 0.00 0.00 0.00 0.00 0.00 0.00 0.00 0.00 0.00 0.00 0.00 0.00 0.00 0.00 0.00 0.00 0.00 0.00
0.00 0.00 0.00 0.00 0.00 0.00 0.00 0.00 0.00 0.00 0.00 0.00 0.00 0.00 0.00 0.00 0.00 0.00 0.00 0.00 0.00 0.00 0.00 0.00 0.00 0.00 0.00 0.00 0.00 0.00 0.00 0.00 0.00 0.00 0.00 0.00 0.00 0.00 0.00 0.00 0.00 0.00 0.00 0.00 0.00 0.00 0.00 0.00 0.00
0.00 0.00 0.00 0.00 0.00 0.00 0.00 0.00 0.00 0.00 0.00 0.00 0.00 0.00 0.00 0.00 0.00 0.00 0.00 0.00 0.00 0.00 0.00 0.00 0.00 0.00 0.00 0.00 0.00 0.00 0.00 0.00 0.00 0.00 0.00 0.00 0.00 0.00 0.00 0.00 0.00 0.00 0.00 0.00 0.00 0.00 0.00 0.00 0.00
0.00 0.00 0.00 0.00 0.00 0.00 0.00 0.00 0.00 0.00 0.00 0.00 0.00 0.00 0.00 0.00 0.00 0.00 0.00 0.00 0.00 0.00 0.00 0.00 0.00 0.00 0.00 0.00 0.00 0.00 0.00 0.00 0.00 0.00 0.00 0.00 0.00 0.00 0.00 0.00 0.00 0.00 0.00 0.00 0.00 0.00 0.00 0.00 0.00
0.00 0.00 0.00 0.00 0.00 0.00 0.00 0.00 0.00 0.00 0.00 0.00 0.00 0.00 0.00 0.00 0.00 0.00 0.00 0.00 0.00 0.00 0.00 0.00 0.00 0.00 0.00 0.00 0.00 0.00 0.00 0.00 0.00 0.00 0.00 0.00 0.01 0.03 0.02 0.01 0.00 0.00 0.00 0.00 0.00 0.00 0.00 0.00 0.00
0.00 0.00 0.00 0.00 0.00 0.00 0.00 0.00 0.00 0.00 0.00 0.00 0.00 0.00 0.00 0.00 0.00 0.00 0.00 0.00 0.00 0.00 0.00 0.00 0.00 0.00 0.00 0.00 0.00 0.00 0.00 0.00 0.00 0.01 0.01 0.02 0.03 0.04 0.06 0.05 0.02 0.00 0.00 0.00 0.00 0.00 0.00 0.00 0.00
0.00 0.00 0.00 0.00 0.00 0.00 0.00 0.00 0.00 0.00 0.00 0.00 0.00 0.00 0.00 0.00 0.00 0.00 0.00 0.00 0.00 0.00 0.00 0.00 0.00 0.00 0.00 0.00 0.00 0.00 0.00 0.00 0.01 0.02 0.04 0.06 0.06 0.05 0.06 0.06 0.08 0.04 0.02 0.00 0.00 0.00 0.00 0.00 0.00
0.00 0.00 0.00 0.00 0.00 0.00 0.00 0.00 0.00 0.00 0.00 0.00 0.00 0.00 0.00 0.00 0.00 0.00 0.00 0.00 0.00 0.00 0.00 0.00 0.00 0.00 0.00 0.00 0.00 0.00 0.00 0.00 0.00 0.00 0.01 0.03 0.05 0.05 0.06 0.05 0.04 0.07 0.07 0.05 0.03 0.01 0.01 0.00 0.00
0.00 0.00 0.00 0.00 0.00 0.00 0.00 0.00 0.00 0.00 0.00 0.00 0.00 0.00 0.00 0.00 0.00 0.00 0.00 0.00 0.00 0.00 0.00 0.00 0.00 0.00 0.00 0.00 0.00 0.00 0.00 0.00 0.00 0.00 0.01 0.01 0.02 0.03 0.03 0.03 0.04 0.04 0.06 0.07 0.05 0.02 0.01 0.01 0.01
0.00 0.00 0.00 0.00 0.00 0.00 0.00 0.00 0.00 0.00 0.00 0.00 0.00 0.00 0.00 0.00 0.00 0.00 0.00 0.00 0.00 0.00 0.00 0.00 0.00 0.00 0.00 0.00 0.00 0.00 0.00 0.00 0.00 0.00 0.00 0.00 0.00 0.01 0.02 0.02 0.03 0.04 0.05 0.05 0.03 0.01 0.00 0.00 0.00
0.00 0.00 0.00 0.00 0.00 0.00 0.00 0.00 0.00 0.00 0.00 0.00 0.00 0.00 0.00 0.00 0.00 0.00 0.00 0.00 0.00 0.00 0.00 0.00 0.00 0.00 0.00 0.00 0.00 0.00 0.00 0.00 0.00 0.00 0.00 0.00 0.01 0.01 0.01 0.02 0.03 0.04 0.05 0.03 0.00 0.00 0.00 0.00 0.00
0.00 0.00 0.00 0.00 0.00 0.00 0.00 0.00 0.00 0.00 0.00 0.00 0.00 0.00 0.00 0.00 0.00 0.00 0.00 0.00 0.00 0.00 0.00 0.00 0.00 0.00 0.00 0.00 0.00 0.00 0.00 0.00 0.00 0.00 0.00 0.00 0.00 0.01 0.01 0.01 0.03 0.05 0.02 0.01 0.00 0.00 0.00 0.00 0.00
0.00 0.00 0.00 0.00 0.00 0.00 0.00 0.00 0.00 0.00 0.00 0.00 0.00 0.00 0.00 0.00 0.00 0.00 0.00 0.00 0.00 0.00 0.00 0.00 0.00 0.00 0.00 0.00 0.00 0.00 0.00 0.00 0.00 0.00 0.00 0.00 0.01 0.01 0.02 0.03 0.04 0.03 0.01 0.00 0.00 0.00 0.00 0.00 0.00
0.00 0.00 0.00 0.00 0.00 0.00 0.00 0.00 0.00 0.00 0.00 0.00 0.00 0.00 0.00 0.00 0.00 0.00 0.00 0.00 0.00 0.00 0.00 0.00 0.00 0.00 0.00 0.00 0.00 0.00 0.00 0.00 0.01 0.00 0.01 0.00 0.00 0.00 0.01 0.00 0.00 0.00 0.00 0.00 0.00 0.00 0.00 0.00 0.00
0.00 0.00 0.00 0.00 0.00 0.00 0.00 0.00 0.00 0.00 0.00 0.00 0.00 0.00 0.00 0.00 0.00 0.00 0.00 0.00 0.00 0.00 0.00 0.00 0.00 0.00 0.00 0.00 0.00 0.00 0.00 0.00 0.00 0.00 0.00 0.00 0.00 0.00 0.00 0.00 0.00 0.00 0.00 0.00 0.00 0.00 0.00 0.00 0.00
0.00 0.00 0.00 0.00 0.00 0.00 0.00 0.00 0.00 0.00 0.00 0.00 0.00 0.00 0.00 0.00 0.00 0.00 0.00 0.00 0.00 0.00 0.00 0.00 0.00 0.00 0.00 0.00 0.01 0.01 0.00 0.00 0.00 0.00 0.00 0.00 0.00 0.00 0.00 0.00 0.00 0.00 0.00 0.00 0.00 0.00 0.00 0.00 0.00
0.00 0.00 0.00 0.00 0.00 0.00 0.00 0.00 0.00 0.00 0.00 0.00 0.00 0.00 0.00 0.00 0.00 0.00 0.00 0.00 0.00 0.00 0.00 0.00 0.00 0.00 0.00 0.01 0.00 0.00 0.00 0.00 0.00 0.00 0.00 0.00 0.00 0.00 0.00 0.00 0.00 0.00 0.00 0.00 0.00 0.00 0.00 0.00 0.00
0.00 0.00 0.00 0.00 0.00 0.00 0.00 0.00 0.00 0.00 0.00 0.00 0.00 0.00 0.00 0.00 0.00 0.00 0.00 0.00 0.00 0.00 0.00 0.00 0.00 0.00 0.00 0.00 0.00 0.00 0.00 0.00 0.00 0.00 0.00 0.00 0.00 0.00 0.00 0.00 0.00 0.00 0.00 0.00 0.00 0.00 0.00 0.00 0.00
0.00 0.00 0.00 0.00 0.00 0.00 0.00 0.00 0.00 0.00 0.00 0.00 0.00 0.00 0.00 0.00 0.00 0.00 0.00 0.00 0.00 0.00 0.00 0.00 0.00 0.00 0.00 0.00 0.00 0.00 0.00 0.00 0.00 0.00 0.00 0.00 0.00 0.00 0.00 0.00 0.00 0.00 0.00 0.00 0.00 0.00 0.00 0.00 0.00
0.00 0.00 0.00 0.01 0.01 0.00 0.00 0.00 0.00 0.00 0.00 0.00 0.00 0.00 0.00 0.00 0.00 0.00 0.00 0.00 0.00 0.00 0.00 0.00 0.00 0.00 0.00 0.00 0.00 0.00 0.00 0.00 0.00 0.00 0.00 0.00 0.00 0.00 0.00 0.00 0.00 0.00 0.00 0.00 0.00 0.00 0.00 0.00 0.00
0.00 0.00 0.00 0.00 0.00 0.02 0.00 0.00 0.00 0.00 0.00 0.00 0.00 0.00 0.00 0.00 0.00 0.00 0.00 0.00 0.00 0.00 0.00 0.00 0.00 0.00 0.00 0.00 0.00 0.00 0.00 0.00 0.00 0.00 0.00 0.00 0.00 0.00 0.00 0.00 0.00 0.00 0.00 0.00 0.00 0.00 0.00 0.00 0.00
0.00 0.00 0.00 0.01 0.02 0.03 0.00 0.00 0.00 0.00 0.00 0.00 0.00 0.00 0.00 0.00 0.00 0.00 0.00 0.00 0.00 0.00 0.00 0.00 0.00 0.00 0.00 0.00 0.00 0.00 0.00 0.00 0.00 0.00 0.00 0.00 0.00 0.00 0.00 0.00 0.00 0.00 0.00 0.00 0.00 0.00 0.00 0.00 0.00
0.00 0.00 0.00 0.01 0.01 0.01 0.01 0.00 0.00 0.00 0.00 0.00 0.00 0.00 0.00 0.00 0.00 0.00 0.00 0.00 0.00 0.00 0.00 0.00 0.00 0.00 0.00 0.00 0.00 0.00 0.00 0.00 0.00 0.00 0.00 0.00 0.00 0.00 0.00 0.00 0.00 0.00 0.00 0.00 0.00 0.00 0.00 0.00 0.00
0.00 0.00 0.00 0.03 0.02 0.03 0.01 0.01 0.00 0.00 0.00 0.00 0.00 0.00 0.00 0.00 0.00 0.00 0.00 0.00 0.00 0.00 0.00 0.00 0.00 0.00 0.00 0.00 0.00 0.00 0.00 0.00 0.00 0.00 0.00 0.00 0.00 0.00 0.00 0.00 0.00 0.00 0.00 0.00 0.00 0.00 0.00 0.00 0.00
MSLP
1009.16 1008.50 1007.94 1006.96 1005.94 1003.45 1000.74 998.09 996.39 996.17 996.82 997.53 997.99 998.39 999.28 1000.38 1000.82 1002.99 1004.05 1004.43 1005.52 1007.06 1008.26 1009.06 1009.63 1010.05 1010.52 1010.99 1011.48 1011.96 1012.45 1012.81 1013.05 1013.50 1013.81 1014.22 1014.58 1014.84 1014.96 1015.19 1015.35 1015.58 1015.66 1015.78 1015.79 1015.95 1016.08 1016.29 1016.40
1008.67 1007.67 1006.58 1005.68 1004.11 1001.46 998.82 996.85 996.16 996.51 997.34 998.07 998.77 998.82 999.46 1001.03 1001.86 1003.29 1004.44 1004.88 1005.57 1007.00 1008.17 1008.94 1009.70 1010.10 1010.59 1011.04 1011.56 1012.02 1012.49 1012.88 1013.21 1013.56 1013.96 1014.39 1014.71 1015.00 1015.21 1015.40 1015.63 1015.81 1015.95 1016.01 1016.09 1016.25 1016.48 1016.69 1016.77
1009.10 1007.79 1006.28 1004.33 1002.44 1000.38 998.00 996.25 996.45 997.03 997.80 998.47 998.90 998.95 999.62 1001.14 1002.06 1003.15 1004.35 1004.87 1005.60 1006.79 1007.95 1008.89 1009.69 1010.16 1010.68 1011.20 1011.74 1012.15 1012.54 1012.98 1013.34 1013.71 1014.09 1014.52 1014.81 1015.11 1015.34 1015.57 1015.80 1016.02 1016.14 1016.29 1016.38 1016.50 1016.68 1016.88 1017.07
1007.75 1006.36 1005.62 1003.52 1001.19 999.20 997.85 997.18 997.09 997.41 998.37 998.64 998.77 999.68 1000.74 1001.12 1001.81 1003.06 1004.31 1004.91 1005.62 1006.55 1007.50 1009.08 1009.84 1010.29 1010.77 1011.30 1011.86 1012.28 1012.71 1013.17 1013.52 1013.84 1014.27 1014.68 1014.92 1015.23 1015.48 1015.73 1015.92 1016.17 1016.37 1016.45 1016.63 1016.80 1016.98 1017.06 1017.19
1006.75 1005.77 1004.13 1002.42 1000.66 998.99 997.59 997.51 998.13 998.11 998.53 999.13 999.09 999.76 1000.85 1001.95 1002.68 1003.55 1004.35 1004.95 1005.61 1006.34 1007.37 1008.90 1009.81 1010.47 1010.91 1011.38 1011.89 1012.33 1012.85 1013.27 1013.70 1014.01 1014.47 1014.82 1015.06 1015.31 1015.67 1015.94 1016.14 1016.30 1016.51 1016.74 1016.90 1017.05 1017.16 1017.20 1017.36
1005.96 1005.00 1003.78 1001.78 999.98 998.41 997.73 997.80 998.55 998.44 998.41 998.99 999.35 999.72 1000.94 1002.18 1003.02 1003.79 1004.40 1005.07 1005.76 1006.72 1007.85 1009.05 1009.85 1010.51 1010.95 1011.44 1011.99 1012.43 1012.94 1013.40 1013.80 1014.13 1014.51 1014.83 1015.23 1015.45 1015.85 1016.17 1016.32 1016.45 1016.70 1016.97 1017.12 1017.21 1017.31 1017.29 1017.31
1005.73 1004.54 1003.09 1001.61 999.62 997.87 997.21 997.98 998.94 998.64 998.53 999.01 999.36 999.55 1000.93 1001.95 1002.82 1003.87 1004.55 1005.19 1005.96 1006.86 1007.90 1009.13 1009.90 1010.51 1011.06 1011.54 1012.07 1012.45 1012.94 1013.37 1013.83 1014.19 1014.46 1014.81 1015.30 1015.71 1015.84 1016.00 1016.35 1016.64 1016.86 1017.07 1017.17 1017.24 1017.29 1017.37 1017.32
1005.21 1004.49 1003.05 1001.47 1000.00 998.14 997.60 998.16 998.98 998.82 998.82 999.36 999.38 999.88 1000.41 1001.29 1002.65 1003.87 1004.79 1005.52 1006.30 1007.09 1008.01 1009.09 1009.73 1010.37 1010.99 1011.54 1012.07 1012.48 1012.86 1013.32 1013.75 1014.16 1014.47 1014.81 1015.21 1015.57 1015.93 1016.08 1016.33 1016.67 1016.87 1017.03 1017.15 1017.26 1017.31 1017.29 1017.31
1005.00 1004.14 1002.76 1001.49 1000.16 998.67 997.87 997.95 998.92 999.32 999.33 999.75 1000.03 1000.47 1001.11 1001.57 1002.69 1003.88 1005.05 1005.89 1006.70 1007.44 1008.13 1009.02 1009.62 1009.99 1010.50 1011.02 1011.89 1012.54 1012.89 1013.33 1013.74 1014.14 1014.54 1015.02 1015.20 1015.52 1015.89 1016.04 1016.20 1016.53 1016.78 1017.00 1017.05 1017.19 1017.29 1017.35 1017.36
1004.64 1003.59 1002.56 1001.45 999.94 998.85 998.24 998.50 999.20 999.53 999.88 999.90 1000.16 1000.73 1001.58 1002.06 1002.82 1003.65 1004.53 1005.27 1006.08 1006.96 1007.72 1008.54 1009.21 1009.71 1010.01 1010.28 1011.29 1012.08 1012.60 1013.09 1013.46 1013.82 1014.30 1014.72 1014.76 1014.86 1015.07 1015.51 1016.08 1016.30 1016.58 1016.79 1016.98 1017.01 1017.10 1017.20 1017.05
1004.04 1002.98 1002.59 1001.18 1000.08 999.38 998.95 998.85 999.12 999.32 999.46 999.79 999.94 1000.58 1001.28 1001.94 1002.45 1003.10 1003.52 1003.82 1004.45 1005.60 1006.90 1007.77 1008.57 1009.20 1009.58 1009.61 1010.65 1011.27 1011.90 1012.54 1013.01 1013.26 1013.71 1014.18 1014.34 1014.38 1014.74 1015.36 1015.77 1016.18 1016.42 1016.55 1016.74 1016.82 1016.84 1016.62 1016.46
1003.67 1002.72 1002.28 1001.47 1000.58 1000.05 999.71 999.80 999.45 999.35 999.30 999.59 999.59 999.91 1000.50 1001.20 1001.91 1002.24 1002.58 1002.89 1003.02 1004.55 1005.80 1007.07 1007.94 1008.78 1009.19 1009.23 1010.14 1010.45 1011.18 1011.91 1012.41 1012.79 1013.19 1013.65 1013.91 1014.22 1014.51 1014.97 1015.08 1015.40 1015.75 1015.93 1015.99 1015.98 1016.00 1016.03 1015.83
1003.28 1002.59 1001.91 1001.50 1001.00 1000.48 1000.29 1000.22 1000.16 999.67 999.53 999.54 999.84 1000.09 1000.44 1000.83 1001.36 1001.68 1001.79 1001.98 1002.47 1003.91 1005.02 1006.23 1007.31 1008.41 1009.10 1009.28 1009.62 1010.05 1010.66 1011.19 1011.67 1012.13 1012.62 1013.08 1013.56 1014.08 1014.32 1014.64 1014.85 1014.92 1014.98 1015.18 1015.23 1015.47 1015.52 1015.54 1015.57
1003.35 1002.44 1001.71 1001.25 1000.81 1000.70 1000.49 1000.52 1000.53 1000.11 999.94 999.61 999.73 999.78 1000.23 1000.67 1001.01 1001.29 1001.37 1001.58 1002.02 1002.68 1004.14 1005.43 1006.52 1007.71 1008.69 1008.96 1009.65 1010.08 1010.41 1010.80 1011.25 1011.64 1012.12 1012.74 1013.23 1013.70 1014.06 1014.45 1014.60 1014.75 1014.76 1014.94 1015.00 1015.07 1015.35 1015.38 1015.50
1003.48 1002.71 1001.96 1001.26 1000.87 1000.61 1000.89 1000.06 999.93 1000.24 999.98 999.60 999.63 999.60 999.70 999.99 1000.27 1000.44 1000.87 1001.33 1001.75 1002.38 1003.46 1004.75 1005.88 1006.98 1008.18 1008.75 1009.39 1010.06 1010.30 1010.78 1011.19 1011.62 1011.87 1012.31 1012.74 1013.17 1013.61 1014.13 1014.37 1014.32 1014.54 1014.79 1015.01 1015.09 1015.02 1015.33 1015.52
1003.86 1003.06 1001.96 1001.42 1001.10 1000.61 1000.86 998.88 999.58 999.71 999.57 999.20 999.10 998.89 998.89 999.27 999.55 999.88 1000.43 1001.00 1001.52 1002.03 1002.83 1004.05 1005.15 1006.40 1007.74 1008.70 1009.05 1009.68 1010.02 1010.57 1011.10 1011.48 1011.65 1011.96 1012.41 1012.74 1013.14 1013.59 1013.92 1014.02 1014.20 1014.62 1014.89 1015.12 1015.35 1015.69 1015.85
1003.91 1002.29 1001.63 1001.16 1000.70 1000.16 999.80 998.54 999.18 999.30 998.75 998.25 998.32 998.39 998.40 998.59 998.90 999.46 1000.36 1000.85 1001.34 1001.73 1002.29 1003.51 1004.55 1005.77 1007.15 1008.30 1008.72 1009.31 1009.73 1010.44 1010.69 1010.97 1011.40 1011.81 1012.24 1012.48 1012.86 1013.35 1013.65 1013.77 1014.23 1014.71 1015.08 1015.44 1015.71 1015.76 1015.82
1002.85 1002.02 1001.69 1000.86 1000.29 999.40 998.83 997.85 998.01 998.06 998.11 997.92 997.74 997.64 997.56 997.85 998.37 999.15 1000.00 1000.75 1001.33 1001.56 1002.00 1003.08 1004.14 1005.25 1006.59 1007.87 1008.57 1009.13 1009.75 1010.31 1010.45 1010.85 1011.30 1011.68 1012.19 1012.49 1012.80 1013.05 1013.41 1013.84 1014.28 1014.62 1014.92 1015.33 1015.44 1015.42 1015.48
1002.54 1001.73 1000.91 1000.14 999.64 999.30 998.51 997.84 997.36 997.47 997.46 997.53 997.61 997.31 997.15 997.57 998.02 998.70 999.62 1000.58 1001.42 1001.53 1001.98 1002.90 1004.04 1004.94 1006.18 1007.35 1008.28 1009.13 1009.64 1010.21 1010.61 1010.88 1011.14 1011.52 1011.96 1012.31 1012.73 1013.26 1013.51 1013.64 1014.19 1014.30 1014.79 1015.01 1015.25 1015.33 1015.26
1002.52 1001.71 1000.64 1000.01 999.50 999.02 998.45 997.83 997.75 997.59 997.29 997.46 997.37 997.10 997.30 997.54 997.70 998.37 999.65 1000.80 1001.80 1001.99 1002.04 1002.68 1003.88 1004.91 1005.90 1007.31 1008.10 1008.87 1009.54 1010.13 1010.48 1010.83 1011.11 1011.53 1011.81 1012.11 1012.61 1013.07 1013.37 1013.55 1013.92 1014.35 1014.74 1015.07 1015.48 1015.64 1015.45
1001.29 1000.81 1000.15 999.95 1000.22 999.70 999.51 998.52 998.10 997.80 997.42 997.38 997.43 997.14 996.90 996.94 997.41 998.06 999.11 1000.15 1001.33 1002.23 1002.35 1002.79 1004.03 1005.02 1006.00 1007.25 1008.23 1008.92 1009.58 1009.96 1010.31 1010.84 1011.29 1011.59 1011.77 1012.16 1012.54 1013.06 1013.60 1014.01 1014.30 1014.68 1014.93 1015.17 1015.49 1015.72 1015.61
1000.14 999.99 1000.15 1000.10 1000.19 999.67 1000.02 999.03 998.04 997.40 996.78 996.68 996.77 996.76 996.66 996.52 996.53 997.17 998.28 999.42 1000.23 1001.57 1002.43 1003.23 1004.19 1005.17 1006.20 1007.15 1008.03 1008.66 1009.08 1009.75 1010.22 1010.67 1011.14 1011.50 1011.93 1012.40 1012.58 1013.20 1013.56 1014.06 1014.36 1014.64 1014.97 1015.17 1015.47 1015.66 1015.83
998.81 1000.19 999.96 1000.00 1000.04 999.99 999.69 999.44 995.59 997.26 996.03 995.63 995.37 995.09 995.30 995.33 995.84 996.38 997.29 998.62 999.74 1000.71 1001.85 1003.12 1004.20 1005.23 1006.16 1006.96 1007.70 1008.52 1009.02 1009.82 1010.32 1010.85 1011.44 1011.88 1012.29 1012.60 1012.86 1013.10 1013.74 1014.14 1014.53 1014.82 1015.02 1015.15 1015.31 1015.47 1015.69
999.29 999.88 999.92 999.83 999.81 999.02 998.74 998.73 995.33 996.69 995.96 995.58 995.15 994.77 994.39 994.49 994.78 995.49 996.49 997.98 999.37 1000.44 1001.60 1003.09 1004.46 1005.51 1006.25 1006.92 1007.57 1008.19 1008.73 1009.76 1010.44 1010.96 1011.48 1012.16 1012.38 1013.05 1013.11 1013.29 1013.63 1014.19 1014.57 1014.78 1014.98 1015.15 1015.36 1015.50 1015.58
998.66 998.65 998.61 998.86 998.94 998.09 998.07 998.11 996.52 996.00 995.30 995.09 994.79 994.41 994.15 994.27 994.50 995.05 996.10 997.70 999.05 1000.42 1001.86 1003.28 1004.65 1005.59 1006.50 1006.94 1007.43 1008.04 1008.45 1009.27 1010.02 1010.71 1011.66 1011.88 1012.28 1013.14 1013.09 1013.75 1013.95 1014.40 1014.52 1014.76 1014.93 1015.15 1015.34 1015.38 1015.42
996.94 997.73 998.06 998.21 998.32 998.22 998.08 997.38 996.12 995.53 995.55 994.60 994.30 994.02 994.03 994.01 994.60 995.21 996.08 997.41 998.82 1000.23 1001.66 1002.85 1004.26 1005.57 1006.43 1006.84 1007.31 1007.72 1008.25 1008.94 1009.87 1010.65 1011.30 1012.04 1012.34 1012.97 1013.20 1013.76 1014.19 1014.42 1014.52 1014.94 1015.12 1015.20 1015.34 1015.45 1015.52
996.42 996.40 997.62 998.27 998.61 998.36 997.52 996.33 995.56 994.07 993.85 993.85 993.57 992.99 993.62 993.86 994.36 995.30 996.18 997.33 998.55 999.89 1001.35 1002.74 1004.17 1005.34 1006.20 1006.56 1007.14 1007.87 1008.34 1009.00 1009.68 1010.45 1011.06 1011.93 1012.45 1012.94 1013.51 1013.96 1014.30 1014.54 1014.75 1015.06 1015.34 1015.42 1015.49 1015.58 1015.72
996.32 996.84 997.00 997.30 998.16 998.03 997.45 996.04 994.90 993.26 992.38 992.78 992.70 992.76 993.16 993.44 993.97 994.58 995.51 996.79 998.19 999.64 1001.11 1002.56 1003.96 1005.17 1005.95 1006.58 1007.05 1007.72 1008.42 1009.09 1009.84 1010.67 1011.40 1011.95 1012.69 1013.28 1013.75 1013.98 1014.29 1014.65 1014.86 1015.01 1015.29 1015.41 1015.52 1015.66 1015.73
995.84 996.10 996.61 996.92 997.74 998.23 997.49 995.52 994.95 993.46 992.40 992.24 992.18 992.44 992.73 993.05 993.41 994.10 995.15 996.47 997.97 999.45 1000.88 1002.39 1003.64 1004.94 1005.95 1006.66 1007.20 1007.82 1008.63 1009.34 1010.25 1010.84 1011.50 1012.20 1012.92 1013.34 1013.79 1014.15 1014.27 1014.59 1014.76 1015.01 1015.42 1015.59 1015.80 1015.89 1015.93
996.18 995.80 995.94 996.41 997.31 997.11 996.68 995.56 994.09 993.37 991.99 992.07 992.03 991.85 992.18 992.71 993.20 993.85 995.10 996.71 998.20 999.69 1001.16 1002.62 1003.63 1004.63 1005.81 1006.73 1007.34 1008.08 1008.77 1009.49 1010.35 1011.03 1011.54 1012.20 1012.81 1013.27 1013.73 1014.28 1014.54 1014.66 1014.95 1015.51 1015.81 1015.98 1016.04 1015.90 1015.86
Thickness
5799 5805 5811 5808 5778 5794 5800 5830 5874 5856 5852 5864 5868 5855 5843 5842 5829 5794 5841 5844 5838 5824 5813 5804 5798 5791 5783 5775 5768 5762 5757 5753 5749 5745 5741 5737 5732 5729 5728 5725 5724 5721 5720 5720 5720 5718 5717 5714 5713
5799 5807 5811 5799 5776 5782 5812 5857 5852 5860 5857 5864 5859 5856 5841 5823 5842 5832 5829 5840 5838 5824 5812 5804 5796 5789 5781 5774 5767 5761 5756 5752 5747 5744 5740 5736 5732 5728 5725 5723 5721 5719 5717 5718 5717 5716 5714 5712 5711
5792 5802 5787 5786 5789 5788 5816 5861 5858 5856 5859 5852 5846 5861 5843 5827 5841 5837 5839 5840 5835 5823 5812 5802 5794 5787 5780 5772 5764 5758 5754 5750 5745 5741 5738 5734 5731 5727 5724 5722 5720 5718 5717 5716 5716 5715 5714 5712 5710
5789 5796 5792 5775 5786 5822 5832 5847 5852 5847 5850 5855 5852 5827 5841 5852 5843 5845 5841 5837 5831 5824 5814 5800 5791 5785 5777 5770 5762 5756 5751 5746 5742 5739 5736 5732 5729 5725 5723 5721 5720 5717 5715 5715 5714 5713 5712 5712 5710
5791 5784 5769 5777 5794 5823 5846 5844 5845 5836 5838 5838 5846 5821 5822 5840 5846 5841 5835 5833 5825 5822 5813 5799 5790 5782 5774 5767 5759 5754 5748 5743 5739 5736 5732 5729 5727 5725 5722 5719 5718 5716 5714 5712 5711 5711 5710 5710 5709
5766 5779 5756 5766 5795 5828 5839 5843 5837 5836 5839 5838 5836 5826 5820 5843 5835 5834 5834 5828 5824 5816 5806 5796 5787 5779 5772 5764 5756 5751 5745 5740 5736 5734 5730 5728 5725 5723 5719 5717 5716 5715 5713 5710 5710 5710 5709 5709 5709
5756 5759 5759 5776 5795 5821 5835 5841 5824 5830 5831 5828 5845 5822 5818 5832 5837 5833 5829 5825 5819 5813 5804 5791 5784 5777 5769 5761 5753 5748 5742 5738 5734 5731 5729 5726 5723 5720 5719 5718 5715 5713 5711 5709 5709 5709 5709 5708 5708
5765 5761 5755 5775 5784 5802 5833 5826 5831 5829 5824 5843 5847 5813 5804 5830 5839 5829 5823 5817 5811 5806 5801 5790 5782 5775 5766 5758 5751 5745 5740 5736 5732 5729 5727 5724 5722 5721 5718 5716 5714 5711 5710 5710 5709 5708 5708 5709 5709
5772 5744 5744 5765 5780 5803 5833 5816 5826 5836 5822 5827 5831 5825 5825 5833 5834 5820 5810 5805 5801 5797 5795 5787 5781 5775 5767 5759 5749 5742 5737 5733 5730 5726 5724 5720 5718 5716 5715 5714 5713 5711 5709 5708 5708 5708 5707 5707 5706
5750 5741 5751 5782 5800 5806 5823 5811 5808 5808 5808 5809 5816 5826 5828 5823 5820 5809 5803 5798 5797 5793 5792 5788 5782 5775 5768 5763 5751 5742 5736 5732 5729 5726 5722 5718 5719 5718 5717 5715 5711 5711 5710 5708 5706 5706 5706 5706 5706
5751 5743 5762 5780 5797 5806 5801 5801 5807 5802 5795 5807 5803 5811 5819 5817 5813 5810 5807 5807 5806 5804 5795 5789 5783 5776 5770 5769 5754 5746 5739 5734 5730 5728 5724 5720 5718 5718 5716 5713 5712 5709 5708 5707 5706 5705 5705 5706 5707
5734 5757 5763 5773 5786 5787 5784 5794 5792 5800 5803 5818 5819 5818 5821 5817 5812 5811 5810 5811 5809 5803 5801 5791 5785 5775 5770 5766 5759 5751 5743 5736 5731 5728 5724 5720 5718 5716 5716 5712 5711 5711 5710 5709 5707 5708 5707 5707 5708
5734 5749 5762 5769 5774 5778 5782 5778 5779 5789 5807 5814 5814 5811 5812 5812 5814 5815 5817 5817 5815 5796 5799 5795 5785 5774 5767 5764 5758 5752 5745 5739 5734 5730 5726 5722 5719 5715 5712 5710 5710 5710 5710 5710 5710 5707 5707 5706 5705
5736 5744 5753 5764 5767 5769 5762 5766 5772 5785 5799 5801 5804 5803 5806 5806 5809 5810 5813 5812 5811 5806 5796 5796 5787 5777 5768 5765 5755 5749 5743 5738 5734 5731 5726 5721 5717 5713 5710 5708 5707 5706 5708 5706 5707 5707 5704 5704 5702
5727 5721 5737 5751 5759 5756 5760 5751 5758 5779 5788 5789 5791 5798 5803 5806 5810 5809 5812 5809 5811 5807 5796 5794 5787 5779 5767 5763 5756 5747 5741 5735 5731 5727 5724 5720 5717 5714 5710 5706 5704 5704 5702 5702 5701 5700 5699 5697 5694
5703 5712 5706 5741 5746 5754 5745 5739 5762 5776 5778 5781 5786 5795 5800 5802 5807 5811 5811 5808 5809 5806 5794 5795 5789 5778 5766 5758 5754 5747 5739 5733 5727 5723 5722 5719 5715 5712 5708 5705 5702 5700 5698 5695 5695 5693 5690 5686 5684
5691 5688 5702 5720 5742 5744 5742 5742 5760 5772 5775 5781 5783 5789 5793 5797 5802 5806 5803 5803 5803 5802 5795 5789 5786 5775 5764 5755 5752 5747 5739 5731 5726 5723 5719 5715 5711 5709 5706 5701 5697 5695 5692 5688 5685 5681 5679 5678 5677
5682 5689 5696 5700 5731 5741 5737 5746 5760 5770 5770 5775 5780 5785 5791 5792 5794 5797 5797 5797 5797 5797 5794 5785 5783 5773 5763 5753 5746 5741 5734 5727 5723 5719 5714 5710 5705 5702 5699 5697 5693 5689 5686 5682 5680 5674 5673 5673 5671
5692 5692 5694 5714 5734 5725 5730 5737 5749 5760 5765 5767 5771 5778 5783 5785 5794 5792 5788 5791 5787 5789 5787 5777 5774 5767 5758 5748 5738 5729 5725 5721 5717 5714 5709 5705 5700 5696 5692 5689 5687 5684 5679 5678 5672 5669 5665 5664 5664
5673 5673 5684 5708 5724 5720 5723 5725 5738 5747 5754 5760 5765 5771 5772 5777 5783 5784 5773 5780 5773 5775 5778 5772 5768 5761 5751 5740 5733 5725 5718 5714 5712 5708 5703 5697 5694 5690 5685 5682 5679 5678 5672 5668 5664 5659 5654 5652 5652
5668 5671 5685 5685 5697 5703 5696 5699 5716 5736 5746 5753 5759 5767 5773 5773 5775 5773 5765 5774 5767 5762 5767 5763 5759 5753 5742 5732 5723 5716 5710 5706 5702 5698 5694 5689 5685 5680 5677 5671 5668 5664 5661 5656 5653 5650 5645 5639 5639
5653 5687 5683 5677 5671 5660 5691 5649 5700 5729 5735 5743 5749 5756 5762 5769 5776 5775 5762 5766 5766 5759 5758 5752 5749 5743 5734 5724 5716 5709 5703 5696 5693 5689 5685 5680 5673 5669 5667 5662 5658 5654 5651 5648 5643 5639 5634 5630 5626
5665 5674 5670 5671 5662 5662 5664 5655 5711 5722 5725 5741 5752 5762 5763 5771 5771 5767 5767 5758 5766 5761 5753 5744 5742 5734 5725 5718 5710 5702 5696 5688 5683 5678 5672 5667 5663 5658 5654 5651 5646 5642 5637 5633 5630 5627 5624 5620 5617
5670 5654 5656 5660 5655 5634 5664 5660 5693 5699 5718 5732 5746 5755 5764 5768 5768 5768 5769 5759 5754 5754 5747 5738 5730 5722 5715 5709 5703 5696 5690 5680 5674 5668 5661 5654 5651 5643 5642 5639 5636 5629 5626 5622 5618 5616 5613 5610 5606
5652 5648 5623 5617 5617 5622 5676 5651 5673 5707 5724 5730 5736 5746 5758 5764 5764 5759 5754 5751 5743 5742 5734 5727 5717 5711 5703 5699 5695 5689 5684 5675 5668 5661 5651 5647 5641 5632 5630 5624 5621 5616 5613 5609 5607 5605 5601 5598 5594
5646 5642 5619 5601 5609 5627 5665 5634 5667 5714 5718 5731 5734 5741 5748 5753 5751 5747 5749 5744 5736 5730 5724 5719 5710 5700 5693 5689 5686 5682 5676 5669 5661 5652 5645 5635 5631 5622 5619 5612 5607 5603 5599 5594 5592 5591 5588 5584 5579
5638 5629 5647 5625 5635 5622 5645 5665 5682 5721 5720 5725 5729 5740 5736 5740 5742 5738 5740 5734 5731 5723 5715 5707 5698 5690 5684 5682 5677 5670 5664 5659 5652 5644 5636 5626 5619 5613 5605 5599 5594 5590 5586 5581 5578 5575 5572 5569 5563
5627 5643 5619 5623 5592 5593 5625 5645 5657 5704 5722 5724 5725 5725 5728 5730 5733 5732 5731 5728 5724 5718 5707 5698 5689 5680 5675 5671 5667 5659 5653 5647 5640 5631 5623 5617 5608 5599 5592 5588 5583 5577 5573 5570 5565 5562 5558 5554 5550
5622 5613 5620 5629 5614 5587 5596 5624 5678 5697 5720 5716 5719 5726 5724 5722 5722 5724 5722 5718 5711 5705 5696 5684 5677 5670 5663 5658 5654 5646 5640 5633 5623 5617 5611 5603 5594 5588 5582 5575 5572 5566 5562 5557 5551 5548 5543 5538 5534
5615 5615 5623 5595 5594 5603 5606 5611 5690 5695 5720 5718 5713 5720 5722 5716 5716 5710 5707 5701 5692 5686 5680 5670 5663 5660 5653 5646 5640 5633 5627 5620 5611 5605 5599 5592 5584 5577 5570 5562 5557 5553 5548 5541 5536 5532 5527 5525 5521